Iowa City, IA

11:47 PM CST on December 10, 2019 (GMT -0600)
Iowa City Municipal

Weather History for KIOW - October, 2019

Change the Weather History Date:

Thursday, October 10, 2019

  Actual Average Record
Temperature  
Mean Temperature 62 °F 54 °F  
Max Temperature 70 °F 66 °F 87 °F (1962)
Min Temperature 54 °F 43 °F 25 °F (1964)
Degree Days  
Heating Degree Days 3 11  
Month to date heating degree days 70 98  
Since 1 July heating degree days 77 210  
Cooling Degree Days 0 1  
Month to date cooling degree days 18 10  
Year to date cooling degree days 1175 912  
Growing Degree Days 13 (Base 50)    
Moisture  
Dew Point 58 °F    
Average Humidity 79    
Maximum Humidity 93    
Minimum Humidity 64    
Precipitation  
Precipitation 0.19 in 0.10 in 2.50 in (1954)
Month to date precipitation 1.60 0.84  
Year to date precipitation 38.57 30.38  
Sea Level Pressure  
Sea Level Pressure 29.88 in    
Wind  
Wind Speed 10 mph (SE)    
Max Wind Speed 25 mph    
Max Gust Speed 31 mph    
Visibility 10 miles    
Events Rain , Thunderstorm    
T = Trace of Precipitation, MM = Missing Value Source: NWS Daily Summary

Daily Weather History Graph

Daily Weather History Graph

Search for Another Location

Airport or City:

Astronomy

Oct. 10, 2019 Rise Set
Actual Time 7:12 AM CDT 6:33 PM CDT
Civil Twilight 6:44 AM CDT 7:01 PM CDT
Nautical Twilight 6:12 AM CDT 7:33 PM CDT
Astronomical Twilight 5:40 AM CDT 8:05 PM CDT
Moon 5:38 PM CDT (10/10) 3:52 AM CDT (10/10)
Length of Visible Light 12h 16m
Length of Day
11h 20m
Waxing Gibbous, 91% of the Moon is Illuminated
Oct 10
Waxing Gibbous
Oct 13
Full
Oct 21
Last Quarter
Oct 27
New
Nov 4
First Quarter

Hourly Weather History & Observations

Time (CDT) Temp. Dew Point Humidity Pressure Visibility Wind Dir Wind Speed Gust Speed Precip Events Conditions
12:52 AM 60.1 °F 48.0 °F 64% 30.00 in 10.0 mi SE 4.6 mph - N/A   Overcast
1:52 AM 59.0 °F 51.1 °F 75% 30.01 in 10.0 mi East 3.5 mph - 0.01 in Rain Light Rain
2:52 AM 60.1 °F 50.0 °F 69% 30.00 in 10.0 mi East 3.5 mph - 0.01 in Rain Light Rain
3:52 AM 57.9 °F 52.0 °F 81% 29.97 in 10.0 mi ENE 4.6 mph - 0.03 in Rain Light Rain
4:52 AM 57.0 °F 53.1 °F 87% 29.95 in 10.0 mi Variable 3.5 mph - 0.03 in   Scattered Clouds
5:52 AM 57.0 °F 52.0 °F 83% 29.92 in 10.0 mi East 4.6 mph - N/A   Clear
6:52 AM 57.9 °F 51.1 °F 78% 29.91 in 10.0 mi ESE 4.6 mph - N/A   Partly Cloudy
7:52 AM 57.9 °F 53.1 °F 84% 29.97 in 10.0 mi SSE 6.9 mph - 0.00 in Rain Light Rain
8:52 AM 60.1 °F 54.0 °F 80% 29.97 in 10.0 mi SSE 6.9 mph - 0.00 in   Clear
9:52 AM 61.0 °F 55.0 °F 81% 29.96 in 10.0 mi SE 8.1 mph - N/A   Mostly Cloudy
10:52 AM 62.1 °F 57.0 °F 84% 29.95 in 10.0 mi SE 10.4 mph - 0.00 in Rain Light Rain
11:52 AM 63.0 °F 57.9 °F 84% 29.94 in 7.0 mi SE 9.2 mph - 0.01 in Rain Light Rain
12:52 PM 63.0 °F 59.0 °F 87% 29.90 in 10.0 mi SE 10.4 mph - 0.01 in   Overcast
1:52 PM 68.0 °F 61.0 °F 78% 29.86 in 10.0 mi SE 13.8 mph 25.3 mph N/A   Mostly Cloudy
2:52 PM 69.1 °F 59.0 °F 70% 29.84 in 10.0 mi SE 17.3 mph 26.5 mph N/A   Mostly Cloudy
3:35 PM 68.0 °F 59.0 °F 73% 29.83 in 10.0 mi SE 16.1 mph 24.2 mph N/A   Overcast
3:52 PM 66.9 °F 59.0 °F 76% 29.83 in 10.0 mi SE 16.1 mph 21.9 mph N/A   Overcast
4:52 PM 66.9 °F 60.1 °F 79% 29.83 in 10.0 mi SSE 11.5 mph - N/A   Overcast
5:52 PM 64.9 °F 61.0 °F 87% 29.81 in 10.0 mi SE 10.4 mph - 0.01 in   Overcast
6:52 PM 64.9 °F 62.1 °F 90% 29.82 in 10.0 mi SE 11.5 mph - 0.02 in   Overcast
7:13 PM 64.9 °F 62.1 °F 90% 29.82 in 10.0 mi SE 12.7 mph - N/A   Overcast
7:52 PM 64.9 °F 62.1 °F 90% 29.81 in 10.0 mi SE 9.2 mph - 0.00 in   Overcast
8:52 PM 64.9 °F 62.1 °F 90% 29.81 in 9.0 mi SE 10.4 mph - N/A   Overcast
9:52 PM 64.9 °F 63.0 °F 93% 29.81 in 9.0 mi SE 10.4 mph - N/A   Overcast
10:52 PM 66.9 °F 63.0 °F 87% 29.79 in 10.0 mi SSE 13.8 mph 21.9 mph N/A   Overcast
11:13 PM 66.9 °F 63.0 °F 87% 29.79 in 10.0 mi SSE 12.7 mph - N/A Thunderstorm Overcast
11:28 PM 66.9 °F 63.0 °F 87% 29.79 in 10.0 mi South 12.7 mph 20.7 mph 0.00 in Rain Light Rain
11:52 PM 66.9 °F 64.0 °F 90% 29.78 in 6.0 mi South 11.5 mph 24.2 mph 0.05 in Rain , Thunderstorm Light Thunderstorms and Rain
11:55 PM 66.9 °F 64.0 °F 90% 29.79 in 8.0 mi South 12.7 mph - 0.00 in Rain , Thunderstorm Light Thunderstorms and Rain